| time (UTC) | temp C | wind direction | speed KPH | gust KPH | rain 1hr cm | rain 24hr cm | rain mn cm | humidity % | barometer mb |
| 20260505093042 | -17 | 219 | 6.4 | 14.5 | 0.00 | 0.00 | 0.00 | 1009.4 | |
| 20260505091537 | -17 | 256 | 6.4 | 19.3 | 0.00 | 0.00 | 0.00 | 1009.3 | |
| 20260505090021 | -17 | 255 | 6.4 | 17.7 | 0.00 | 0.00 | 0.00 | 1009.3 | |
| 20260505084520 | -17 | 238 | 8.0 | 17.7 | 0.00 | 0.00 | 0.00 | 1009.2 | |
| 20260505083014 | -17 | 256 | 6.4 | 14.5 | 0.00 | 0.00 | 0.00 | 1009.1 | |
| 20260505081508 | -17 | 229 | 6.4 | 14.5 | 0.00 | 0.00 | 0.00 | 1009.1 | |
| 20260505080002 | -17 | 237 | 4.8 | 12.9 | 0.00 | 0.00 | 0.00 | 1009.2 | |
| 20260505074558 | -17 | 226 | 6.4 | 14.5 | 0.00 | 0.00 | 0.00 | 1009.2 | |
| 20260505073055 | -17 | 232 | 6.4 | 20.9 | 0.00 | 0.00 | 0.00 | 1009.1 | |
| 20260505071556 | -17 | 247 | 8.0 | 16.1 | 0.00 | 0.00 | 0.00 | 1009.0 | |
| 20260505070029 | -17 | 249 | 6.4 | 16.1 | 0.00 | 0.00 | 0.00 | 1009.0 | |
| 20260505064527 | -17 | 224 | 6.4 | 14.5 | 0.00 | 0.00 | 0.00 | 1008.9 | |
| 20260505063012 | -17 | 245 | 4.8 | 16.1 | 0.00 | 0.00 | 0.00 | 1008.9 | |
| 20260505061503 | -17 | 231 | 6.4 | 12.9 | 0.00 | 0.00 | 0.00 | 1008.8 | |
| 20260505060057 | -17 | 244 | 8.0 | 19.3 | 0.00 | 0.00 | 0.00 | 1008.7 | |
| 20260505054556 | -17 | 240 | 8.0 | 20.9 | 0.00 | 0.00 | 0.00 | 1008.8 | |
| 20260505053056 | -17 | 252 | 9.7 | 20.9 | 0.00 | 0.00 | 0.00 | 1008.8 | |
| 20260505051544 | -17 | 221 | 14.5 | 24.1 | 0.00 | 0.00 | 0.00 | 1008.7 | |
| 20260505041515 | -17 | 256 | 16.1 | 25.7 | 0.00 | 0.00 | 0.00 | 1008.2 | |
| 20260505040007 | -17 | 259 | 16.1 | 27.4 | 0.00 | 0.00 | 0.00 | 1008.0 | |
| 20260505034503 | -17 | 250 | 12.9 | 25.7 | 0.00 | 0.00 | 0.00 | 1007.9 | |
| 20260505033100 | -17 | 207 | 12.9 | 27.4 | 0.00 | 0.00 | 0.00 | 1007.7 | |
| 20260505031555 | -17 | 261 | 9.7 | 25.7 | 0.00 | 0.00 | 0.00 | 1007.7 | |
| 20260505030049 | -17 | 237 | 12.9 | 24.1 | 0.00 | 0.00 | 0.00 | 1007.4 | |
| 20260505024546 | -17 | 245 | 11.3 | 25.7 | 0.00 | 0.00 | 0.00 | 1007.2 | |
| 20260505023028 | -17 | 255 | 12.9 | 25.7 | 0.00 | 0.00 | 0.00 | 1007.1 | |
| 20260505021526 | -17 | 247 | 14.5 | 27.4 | 0.00 | 0.00 | 0.00 | 1007.0 | |
| 20260505020019 | -17 | 250 | 17.7 | 32.2 | 0.00 | 0.00 | 0.00 | 1007.1 | |
| 20260505014514 | -17 | 248 | 12.9 | 25.7 | 0.00 | 0.00 | 0.00 | 1007.1 | |
| 20260505013011 | -17 | 232 | 12.9 | 27.4 | 0.00 | 0.00 | 0.00 | 1007.2 | |
| 20260505011509 | -17 | 268 | 16.1 | 29.0 | 0.00 | 0.00 | 0.00 | 1007.1 | |
| 20260505010106 | -17 | 219 | 14.5 | 27.4 | 0.00 | 0.00 | 0.00 | 1007.2 | |
| 20260505004557 | -17 | 226 | 16.1 | 25.7 | 0.00 | 0.00 | 0.00 | 1007.2 | |
| 20260505003039 | -17 | 255 | 14.5 | 25.7 | 0.00 | 0.00 | 0.00 | 1007.2 | |
| 20260505001536 | -17 | 256 | 9.7 | 24.1 | 0.00 | 0.00 | 0.00 | 1007.4 | |
| 20260505000033 | -17 | 224 | 8.0 | 19.3 | 0.00 | 0.00 | 0.00 | 1007.4 | |
| 20260504234526 | -17 | 231 | 9.7 | 22.5 | 0.00 | 0.00 | 0.00 | 1007.5 | |
| 20260504233021 | -17 | 230 | 6.4 | 17.7 | 0.00 | 0.00 | 0.00 | 1007.4 | |
| 20260504231516 | -17 | 248 | 9.7 | 20.9 | 0.00 | 0.00 | 0.00 | 1007.5 | |
| 20260504230012 | -17 | 217 | 8.0 | 16.1 | 0.00 | 0.00 | 0.00 | 1007.6 | |
| 20260504224509 | -17 | 243 | 8.0 | 17.7 | 0.00 | 0.00 | 0.00 | 1007.8 | |
| 20260504223051 | -17 | 233 | 8.0 | 19.3 | 0.00 | 0.00 | 0.00 | 1008.0 | |
| 20260504221546 | -17 | 234 | 9.7 | 19.3 | 0.00 | 0.00 | 0.00 | 1008.1 | |
| 20260504220058 | -17 | 195 | 6.4 | 17.7 | 0.00 | 0.00 | 0.00 | 1008.2 | |
| 20260504214550 | -17 | 249 | 4.8 | 14.5 | 0.00 | 0.00 | 0.00 | 1008.4 | |
| 20260504213048 | -17 | 249 | 6.4 | 19.3 | 0.00 | 0.00 | 0.00 | 1008.5 | |
| 20260504211534 | -17 | 232 | 4.8 | 16.1 | 0.00 | 0.00 | 0.00 | 1008.6 | |
| 20260504210028 | -17 | 221 | 4.8 | 19.3 | 0.00 | 0.00 | 0.00 | 1008.7 | |
| 20260504204526 | -17 | 244 | 9.7 | 20.9 | 0.00 | 0.00 | 0.00 | 1009.0 | |
| 20260504203011 | -17 | 229 | 6.4 | 16.1 | 0.00 | 0.00 | 0.00 | 1008.9 | |
| 20260504201503 | -17 | 226 | 4.8 | 16.1 | 0.00 | 0.00 | 0.00 | 1009.0 | |
| 20260504194555 | -17 | 212 | 8.0 | 14.5 | 0.00 | 0.00 | 0.00 | 1009.3 | |
| 20260504193051 | -17 | 227 | 6.4 | 16.1 | 0.00 | 0.00 | 0.00 | 1009.3 | |
| 20260504191554 | -17 | 219 | 4.8 | 16.1 | 0.00 | 0.00 | 0.00 | 1009.4 | |
| 20260504190047 | -17 | 214 | 6.4 | 17.7 | 0.00 | 0.00 | 0.00 | 1009.4 | |
| 20260504184550 | -17 | 219 | 4.8 | 16.1 | 0.00 | 0.00 | 0.00 | 1009.4 | |
| 20260504183034 | -17 | 240 | 4.8 | 12.9 | 0.00 | 0.00 | 0.00 | 1009.5 | |
| 20260504181522 | -17 | 234 | 8.0 | 17.7 | 0.00 | 0.00 | 0.00 | 1009.4 | |
| 20260504180009 | -17 | 214 | 6.4 | 12.9 | 0.00 | 0.00 | 0.00 | 1009.4 | |
| 20260504174504 | -17 | 229 | 8.0 | 16.1 | 0.00 | 0.00 | 0.00 | 1009.4 | |
| 20260504173106 | -17 | 253 | 4.8 | 17.7 | 0.00 | 0.00 | 0.00 | 1009.4 | |
| 20260504171556 | -17 | 238 | 6.4 | 12.9 | 0.00 | 0.00 | 0.00 | 1009.3 |